EW1525 Weather Reports


time (UTC)temp
F
wind
direction
speed
knots
gust
knots
rain 1hr
in
rain 24hr
in
rain mn
in
humidity
%
barometer
mb
20260507030003 56 176 0.9 6.1 0.00 0.13 0.13 1 1006.6
20260507025504 56 187 0.9 5.2 0.00 0.13 0.13 1 1006.7
20260507025003 56 189 0.9 5.2 0.00 0.13 0.13 1 1006.6
20260507024503 56 181 0.9 3.5 0.00 0.13 0.13 1 1006.5
20260507024003 56 183 0.9 5.2 0.00 0.13 0.13 1 1006.6
20260507023503 56 184 0.9 5.2 0.00 0.13 0.13 1 1006.7
20260507022503 56 189 0.9 4.3 0.00 0.13 0.13 1 1006.6
20260507022003 56 0 0.0 3.5 0.00 0.13 0.13 1 1006.6
20260507021004 56 0 0.0 4.3 0.00 0.13 0.13 1 1006.7
20260507020503 56 174 0.9 4.3 0.00 0.13 0.13 1 1006.7
20260507020003 56 171 0.9 4.3 0.00 0.13 0.13 1 1006.8
20260507015004 56 172 0.9 5.2 0.00 0.13 0.13 1 1007.0
20260507014503 56 174 0.9 5.2 0.00 0.13 0.13 1 1007.1
20260507014003 56 155 0.9 7.0 0.00 0.13 0.13 1 1007.2
20260507013503 56 168 0.9 7.0 0.00 0.13 0.13 1 1006.9
20260507013004 56 0 0.0 4.3 0.00 0.13 0.13 1 1007.0
20260507012503 56 177 0.9 4.3 0.00 0.13 0.13 1 1007.2
20260507011503 56 176 0.9 5.2 0.00 0.13 0.13 1 1007.2
20260507011004 56 177 0.9 6.1 0.00 0.13 0.13 1 1007.2
20260507010503 56 169 0.9 6.1 0.00 0.13 0.13 1 1007.3
20260507010004 56 0 0.0 3.5 0.00 0.13 0.13 1 1007.4
20260507005503 56 174 0.9 7.8 0.00 0.13 0.13 1 1007.3
20260507005004 56 183 0.9 7.8 0.00 0.13 0.13 1 1007.3
20260507004503 56 188 1.7 7.8 0.00 0.13 0.13 1 1007.3
20260507004004 56 189 0.9 4.3 0.00 0.13 0.13 1 1007.3
20260507003504 56 179 0.9 4.3 0.00 0.13 0.13 1 1007.2
20260507003004 56 179 0.9 4.3 0.00 0.13 0.13 1 1007.2
20260507002503 56 191 0.9 7.0 0.01 0.13 0.13 1 1007.3
20260507002004 56 185 1.7 7.0 0.02 0.13 0.13 1 1007.2
20260507001503 56 179 1.7 7.8 0.02 0.13 0.13 1 1007.2
20260507001003 56 183 1.7 7.8 0.02 0.13 0.13 1 1007.2
20260507000503 56 187 1.7 6.1 0.02 0.13 0.13 1 1007.2
20260507000004 56 187 1.7 8.7 0.02 0.13 0.13 1 1007.2
20260506235504 56 187 1.7 8.7 0.03 0.13 0.13 1 1007.1
20260506235003 56 191 1.7 7.8 0.03 0.13 0.13 1 1007.2
20260506234503 56 190 1.7 7.0 0.04 0.13 0.13 1 1007.1
20260506234004 56 187 1.7 7.0 0.04 0.13 0.13 1 1007.2
20260506233503 56 181 1.7 8.7 0.05 0.13 0.13 1 1007.2
20260506233003 56 181 1.7 8.7 0.05 0.13 0.13 1 1007.2
20260506232503 56 186 1.7 6.1 0.06 0.12 0.12 1 1007.3
20260506232004 56 189 1.7 6.1 0.05 0.11 0.11 1 1007.3
20260506231504 56 187 1.7 6.1 0.06 0.11 0.11 1 1007.3
20260506231003 56 183 1.7 8.7 0.06 0.11 0.11 1 1007.3
20260506230503 56 188 2.6 8.7 0.06 0.11 0.11 1 1007.2
20260506230004 56 189 1.7 6.1 0.06 0.10 0.10 1 1007.3
20260506225504 56 184 1.7 7.8 0.06 0.10 0.10 1 1007.2
20260506225003 56 183 1.7 7.8 0.05 0.09 0.09 1 1007.1
20260506224503 56 185 1.7 7.0 0.05 0.09 0.09 1 1007.1
20260506224003 56 194 1.7 6.1 0.04 0.08 0.08 1 1007.1
20260506223504 56 191 2.6 9.6 0.04 0.08 0.08 1 1007.1
20260506222504 56 187 1.7 7.0 0.02 0.06 0.06 1 1007.2
20260506222003 56 192 1.7 7.8 0.02 0.06 0.06 1 1007.3
20260506221504 57 191 1.7 7.8 0.01 0.05 0.05 1 1007.2
20260506221004 57 189 2.6 7.8 0.01 0.05 0.05 1 1007.7
20260506220504 57 185 2.6 7.8 0.02 0.05 0.05 1 1007.5
20260506220003 57 176 1.7 11.3 0.01 0.04 0.04 1 1007.6
20260506215503 57 182 2.6 11.3 0.01 0.04 0.04 1 1007.7
20260506215004 57 187 2.6 7.0 0.02 0.04 0.04 1 1007.6
20260506214503 57 186 2.6 10.4 0.02 0.04 0.04 1 1007.5
20260506214003 57 191 2.6 10.4 0.02 0.04 0.04 1 1007.6
20260506213003 57 188 2.6 13.0 0.02 0.04 0.04 1 1007.6
20260506212503 57 189 2.6 11.3 0.02 0.04 0.04 1 1007.8
20260506211003 57 188 2.6 8.7 0.02 0.04 0.04 1 1007.9
20260506210503 57 181 2.6 8.7 0.01 0.03 0.03 1 1007.9
20260506205503 57 193 2.6 12.2 0.01 0.03 0.03 1 1007.9
20260506205003 57 192 2.6 13.0 0.00 0.02 0.02 1 1008.1
20260506203503 57 187 2.6 10.4 0.02 0.02 0.02 1 1008.1
20260506202504 57 183 2.6 9.6 0.02 0.02 0.02 1 1008.1
20260506202003 57 188 2.6 8.7 0.02 0.02 0.02 1 1008.2
20260506201503 57 190 3.5 12.2 0.02 0.02 0.02 1 1008.2
20260506201003 57 187 3.5 12.2 0.02 0.02 0.02 1 1008.2
20260506200503 57 178 2.6 11.3 0.02 0.02 0.02 1 1008.3
20260506200004 57 179 2.6 7.8 0.02 0.02 0.02 1 1008.3
20260506195503 65 175 1.7 6.1 0.02 0.02 0.02 63 1008.4
20260506194503 65 181 1.7 7.0 0.01 0.01 0.01 63 1008.6
20260506193503 65 188 1.7 8.7 0.00 0.00 0.00 63 1008.6
20260506193003 65 177 2.6 8.7 0.00 0.00 0.00 63 1008.6
20260506192503 65 181 2.6 6.1 0.00 0.00 0.00 63 1008.6
20260506190503 65 179 2.6 8.7 0.00 0.00 0.00 63 1008.6
20260506190004 65 183 2.6 13.0 0.00 0.00 0.00 63 1008.7
20260506185503 65 182 2.6 13.0 0.00 0.00 0.00 63 1008.7
20260506185003 65 175 2.6 9.6 0.00 0.00 0.00 63 1008.6
20260506184503 65 174 2.6 9.6 0.00 0.00 0.00 63 1008.6
20260506184003 65 183 2.6 6.1 0.00 0.00 0.00 63 1008.6
20260506183504 65 188 1.7 7.0 0.00 0.00 0.00 63 1008.8
20260506183003 65 181 2.6 13.0 0.00 0.00 0.00 63 1009.0
20260506182503 65 181 3.5 13.0 0.00 0.00 0.00 63 1009.0
20260506182003 65 181 3.5 10.4 0.00 0.00 0.00 63 1009.0
20260506181503 65 183 1.7 10.4 0.00 0.00 0.00 63 1009.1
20260506180503 65 184 3.5 13.0 0.00 0.00 0.00 63 1009.2
20260506180005 65 178 2.6 13.0 0.00 0.00 0.00 63 1009.3
20260506175503 65 179 3.5 13.9 0.00 0.00 0.00 63 1009.4
20260506175003 65 178 3.5 13.9 0.00 0.00 0.00 63 1009.6
20260506174503 65 172 2.6 13.0 0.00 0.00 0.00 63 1009.6
20260506174004 65 178 3.5 13.0 0.00 0.00 0.00 63 1009.7
20260506173003 65 181 3.5 14.8 0.00 0.00 0.00 63 1009.9
20260506172503 65 186 3.5 14.8 0.00 0.00 0.00 63 1009.8
20260506171503 65 188 2.6 15.6 0.00 0.00 0.00 63 1009.7
20260506171003 65 179 3.5 15.6 0.00 0.00 0.00 63 1009.7
20260506170504 65 177 2.6 13.0 0.00 0.00 0.00 63 1009.7
20260506170003 65 183 2.6 7.8 0.00 0.00 0.00 63 1009.8
20260506165503 65 192 3.5 16.5 0.00 0.00 0.00 63 1010.0
20260506164503 65 186 3.5 12.2 0.00 0.00 0.00 63 1010.2
20260506164003 65 185 3.5 13.9 0.00 0.00 0.00 63 1010.1
20260506163503 65 192 3.5 13.9 0.00 0.00 0.00 63 1010.1
20260506163004 65 194 2.6 8.7 0.00 0.00 0.00 63 1010.3
20260506162504 65 182 3.5 13.0 0.00 0.00 0.00 63 1010.2
20260506160003 65 176 2.6 8.7 0.00 0.00 0.00 63 1010.5
20260506155503 65 185 2.6 11.3 0.00 0.00 0.00 63 1010.7
20260506155004 65 194 3.5 11.3 0.00 0.00 0.00 63 1010.7
20260506154503 65 189 4.3 13.9 0.00 0.00 0.00 63 1010.6
20260506154003 65 182 3.5 13.9 0.00 0.00 0.00 63 1010.8
20260506153503 65 182 3.5 10.4 0.00 0.00 0.00 63 1010.7
20260506153004 65 179 3.5 12.2 0.00 0.00 0.00 63 1010.8
20260506152503 65 181 4.3 14.8 0.00 0.00 0.00 63 1010.9
20260506152003 65 179 5.2 15.6 0.00 0.00 0.00 63 1010.8
20260506151503 65 181 4.3 15.6 0.00 0.00 0.00 63 1010.9
20260506151004 65 185 3.5 13.9 0.00 0.00 0.00 63 1011.1
20260506150503 65 192 3.5 13.9 0.00 0.00 0.00 63 1011.0
20260506150003 65 197 2.6 10.4 0.00 0.00 0.00 63 1011.0
20260506145503 65 183 2.6 7.8 0.00 0.00 0.00 63 1011.1
20260506145004 65 179 3.5 12.2 0.00 0.00 0.00 63 1010.8
20260506144504 65 181 3.5 12.2 0.00 0.00 0.00 63 1010.9
20260506144003 65 186 2.6 11.3 0.00 0.00 0.00 63 1010.9
20260506143503 65 187 3.5 9.6 0.00 0.00 0.00 63 1010.9
20260506143004 65 190 2.6 8.7 0.00 0.00 0.00 63 1010.9
20260506142504 65 193 2.6 9.6 0.00 0.00 0.00 63 1010.9
20260506142003 65 189 3.5 9.6 0.00 0.00 0.00 63 1011.0
20260506141004 65 185 3.5 13.9 0.00 0.00 0.00 63 1010.7
20260506140004 65 184 2.6 7.8 0.00 0.00 0.00 63 1010.9
20260506135503 66 183 2.6 9.6 0.00 0.00 0.00 60 1010.9
20260506135004 65 176 2.6 9.6 0.00 0.00 0.00 63 1010.9
20260506134004 65 179 2.6 7.0 0.00 0.00 0.00 59 1011.2
20260506133504 65 175 2.6 7.0 0.00 0.00 0.00 61 1011.4
20260506133003 64 179 1.7 5.2 0.00 0.00 0.00 100 1011.4
20260506132004 53 185 2.6 8.7 0.00 0.00 0.00 100 1011.4
20260506131504 53 186 1.7 8.7 0.00 0.00 0.00 100 1011.2
20260506131003 53 196 1.7 7.0 0.00 0.00 0.00 100 1011.3
20260506130503 53 183 2.6 10.4 0.00 0.00 0.00 100 1011.4
20260506130004 53 181 2.6 10.4 0.00 0.00 0.00 100 1011.3
20260506125504 53 184 2.6 7.8 0.00 0.00 0.00 100 1011.4
20260506125003 53 174 2.6 8.7 0.00 0.00 0.00 100 1011.2
20260506124503 53 168 2.6 8.7 0.00 0.00 0.00 100 1011.2
20260506123503 53 183 1.7 4.3 0.00 0.00 0.00 100 1011.2
20260506123003 53 179 2.6 9.6 0.00 0.00 0.00 100 1011.2
20260506122503 53 178 2.6 9.6 0.00 0.00 0.00 100 1011.2
20260506122003 53 181 2.6 6.1 0.00 0.00 0.00 100 1011.4
20260506121503 53 181 1.7 7.0 0.00 0.00 0.00 100 1011.4
20260506121003 53 183 1.7 7.0 0.00 0.00 0.00 100 1011.4
20260506120503 53 175 1.7 7.8 0.00 0.00 0.00 100 1011.6
20260506115503 53 183 1.7 9.6 0.00 0.00 0.00 100 1011.6
20260506114503 53 177 1.7 5.2 0.00 0.00 0.00 100 1011.6
20260506114003 53 173 1.7 5.2 0.00 0.00 0.00 100 1011.6
20260506113503 53 179 1.7 8.7 0.00 0.00 0.00 100 1011.6
20260506113003 53 179 1.7 8.7 0.00 0.00 0.00 100 1011.7
20260506112503 53 188 2.6 5.2 0.00 0.00 0.00 100 1011.8
20260506112004 53 186 2.6 7.0 0.00 0.00 0.00 100 1011.9
20260506111003 53 181 1.7 6.1 0.00 0.00 0.00 100 1011.8
20260506110503 53 188 1.7 5.2 0.00 0.00 0.00 100 1011.7
20260506110004 53 183 1.7 6.1 0.00 0.00 0.00 100 1011.7
20260506105503 53 175 1.7 6.1 0.00 0.00 0.00 100 1011.6
20260506104504 53 174 1.7 6.1 0.00 0.00 0.00 100 1011.6
20260506104004 53 182 1.7 6.1 0.00 0.00 0.00 100 1011.6
20260506103504 53 172 1.7 7.0 0.00 0.00 0.00 100 1011.6
20260506103003 53 166 0.9 7.0 0.00 0.00 0.00 100 1011.6
20260506102503 53 173 1.7 7.8 0.00 0.00 0.00 100 1011.6
20260506102003 53 164 1.7 7.8 0.00 0.00 0.00 100 1011.5
20260506101504 53 163 1.7 6.1 0.00 0.00 0.00 100 1011.4
20260506101003 53 179 0.9 5.2 0.00 0.00 0.00 100 1011.4
20260506100503 53 183 0.9 3.5 0.00 0.00 0.00 100 1011.3
20260506100004 53 182 0.9 4.3 0.00 0.00 0.00 100 1011.3
20260506095503 53 178 0.9 4.3 0.00 0.00 0.00 100 1011.2
20260506095003 53 165 0.9 4.3 0.00 0.00 0.00 100 1011.3
20260506094503 53 164 0.9 4.3 0.00 0.00 0.00 100 1011.2
20260506093504 53 176 1.7 6.1 0.00 0.00 0.00 100 1011.3
20260506093004 53 184 0.9 4.3 0.00 0.00 0.00 100 1011.4
20260506092503 53 175 0.9 5.2 0.00 0.00 0.00 100 1011.3
20260506091503 53 164 0.9 4.3 0.00 0.00 0.00 100 1011.3
20260506091003 53 173 0.9 4.3 0.00 0.00 0.00 100 1011.3
20260506090503 53 177 0.9 4.3 0.00 0.00 0.00 100 1011.5
20260506090003 53 166 0.9 3.5 0.00 0.00 0.00 100 1011.5
20260506085503 53 163 0.9 4.3 0.00 0.00 0.00 100 1011.7
20260506085003 53 159 0.9 4.3 0.00 0.00 0.00 100 1011.7
20260506084003 53 194 1.7 4.3 0.00 0.00 0.00 100 1011.7
20260506083003 53 191 0.9 5.2 0.00 0.00 0.00 100 1011.8
20260506082503 53 189 0.9 4.3 0.00 0.00 0.00 100 1011.8
20260506082003 53 185 0.9 3.5 0.00 0.00 0.00 100 1011.9
20260506081503 53 181 1.7 6.1 0.00 0.00 0.00 100 1011.8
20260506081004 53 171 1.7 6.1 0.00 0.00 0.00 100 1011.7
20260506080503 53 178 1.7 4.3 0.00 0.00 0.00 100 1011.8
20260506073504 53 190 0.9 6.1 0.00 0.00 0.00 100 1011.7
20260506073004 53 176 0.9 6.1 0.00 0.00 0.00 100 1011.8
20260506072503 53 186 1.7 6.1 0.00 0.00 0.00 100 1011.8
20260506072003 53 194 1.7 7.0 0.00 0.00 0.00 100 1011.7
20260506071504 53 190 1.7 7.0 0.00 0.00 0.00 100 1011.6
20260506071003 53 186 1.7 6.1 0.00 0.00 0.00 100 1011.6
20260506070503 53 185 1.7 5.2 0.00 0.00 0.00 100 1011.7
20260506062504 53 179 1.7 7.8 0.00 0.00 0.00 100 1011.5
20260506062003 53 183 1.7 8.7 0.00 0.00 0.00 100 1011.5
20260506061503 53 183 1.7 8.7 0.00 0.00 0.00 100 1011.5
20260506061005 53 185 1.7 7.0 0.00 0.00 0.00 100 1011.5
20260506060504 53 178 1.7 8.7 0.00 0.00 0.00 100 1011.6
20260506051003 53 179 2.6 8.7 0.00 0.00 0.00 100 1011.8
20260506050504 53 184 2.6 7.8 0.00 0.00 0.00 100 1011.9
20260506045003 53 183 1.7 7.0 0.00 0.00 0.00 100 1012.1
20260506044504 53 186 1.7 7.0 0.00 0.00 0.00 100 1012.1
20260506044004 53 190 1.7 7.0 0.00 0.00 0.00 100 1012.1
20260506043504 53 188 1.7 6.1 0.00 0.00 0.00 100 1012.2
20260506043004 53 188 1.7 7.0 0.00 0.00 0.00 100 1012.1
20260506042503 53 189 1.7 7.0 0.00 0.00 0.00 100 1012.1
20260506042003 53 183 1.7 6.1 0.00 0.00 0.00 100 1012.1
20260506041503 53 186 1.7 6.1 0.00 0.00 0.00 100 1012.1
20260506041004 53 189 1.7 6.1 0.00 0.00 0.00 100 1012.0
20260506040503 53 183 1.7 4.3 0.00 0.00 0.00 100 1012.0
20260506040004 53 184 1.7 4.3 0.00 0.00 0.00 100 1012.0
20260506035503 53 188 2.6 7.0 0.00 0.00 0.00 100 1012.0
20260506035004 53 184 1.7 7.0 0.00 0.00 0.00 100 1012.0
20260506034504 53 184 1.7 5.2 0.00 0.00 0.00 100 1011.9
20260506034003 53 190 1.7 7.0 0.00 0.00 0.00 100 1011.9
20260506033004 53 183 2.6 11.3 0.00 0.00 0.00 100 1011.9
20260506032503 53 184 2.6 7.0 0.00 0.00 0.00 100 1011.9
20260506032003 53 182 1.7 7.0 0.00 0.00 0.00 100 1011.8
20260506031503 53 184 1.7 8.7 0.00 0.00 0.00 100 1011.8